This is the latest recevied weather packets stored in our database for station/object W0WC. If no packets are shown the sender has not sent any weather packets the latest 10 day(s).
| Time | Temp. | Humidity | Pressure | Rain* | Wind** | Luminosity | Snow |
|---|---|---|---|---|---|---|---|
| 1788476998 | 37.78° C | 34% | 1012.3 hPa | 0 mm | - | 148 W/m² | - |
| 1788476694 | 38.33° C | 34% | 1012.1 hPa | 0 mm | - | 167 W/m² | - |
| 1788476391 | 37.78° C | 34% | 1012.2 hPa | 0 mm | - | 178 W/m² | - |
| 1788476085 | 37.78° C | 34% | 1012.2 hPa | 0 mm | - | 194 W/m² | - |
| 1788475782 | 37.78° C | 34% | 1012.2 hPa | 0 mm | - | 212 W/m² | - |
| 1788475477 | 38.33° C | 34% | 1012.2 hPa | 0 mm | - | 219 W/m² | - |
| 1788475173 | 38.33° C | 34% | 1012 hPa | 0 mm | - | 230 W/m² | - |
| 1788474872 | 38.33° C | 33% | 1012.1 hPa | 0 mm | - | 248 W/m² | - |
| 1788474571 | 38.33° C | 34% | 1012.2 hPa | 0 mm | - | 279 W/m² | - |
| 1788474267 | 37.78° C | 35% | 1012 hPa | 0 mm | - | 300 W/m² | - |
| 1788473961 | 38.89° C | 33% | 1012.1 hPa | 0 mm | - | 317 W/m² | - |
| 1788473660 | 38.33° C | 33% | 1012.1 hPa | 0 mm | - | 330 W/m² | - |
| 1788473358 | 37.78° C | 34% | 1012 hPa | 0 mm | - | 336 W/m² | - |
| 1788473052 | 37.78° C | 34% | 1012.1 hPa | 0 mm | - | 332 W/m² | - |
| 1788472750 | 37.78° C | 34% | 1012.3 hPa | 0 mm | - | 349 W/m² | - |
| 1788472447 | 38.33° C | 33% | 1012.3 hPa | 0 mm | - | 356 W/m² | - |
| 1788472145 | 38.33° C | 33% | 1012.4 hPa | 0 mm | - | 376 W/m² | - |
| 1788471841 | 37.78° C | 33% | 1012.4 hPa | 0 mm | - | 390 W/m² | - |
| 1788471541 | 37.78° C | 33% | 1012.5 hPa | 0 mm | - | 403 W/m² | - |
| 1788471236 | 38.33° C | 34% | 1012.6 hPa | 0 mm | - | 425 W/m² | - |
| 1788470932 | 37.78° C | 34% | 1012.7 hPa | 0 mm | - | 201 W/m² | - |
| 1788470628 | 37.78° C | 34% | 1012.8 hPa | 0 mm | - | 448 W/m² | - |
| 1788470327 | 38.33° C | 34% | 1012.8 hPa | 0 mm | - | 463 W/m² | - |
| 1788470023 | 37.78° C | 33% | 1012.8 hPa | 0 mm | - | 479 W/m² | - |
| 1788469719 | 37.78° C | 34% | 1012.7 hPa | 0 mm | - | 493 W/m² | - |
* Rain latest hour (hover to see other rain measurements)
** Current wind speed in m/s (hover to see current wind gust speed)